Will Rogers World Airport Oklahoma City US
ICAO: KOKC
IATA: OKC
Category: Large
Scheduled Services: Yes

Elevation: 1295 ft
TransAlt. 18000 ft.

Airport Communications:
OKE CITY APP/DEP:120.45
ATIS:125.85
CLNC DEL:124.35
GND:121.9
ANG OPS COMD POST:22.56
ROGERS TWR:119.35

KOKC Zoom In..

If you have problems with the map follow the link
https://www.worldairports.se/pages/airport.php?
ICAO=KOKC

Runways:

(A) RW 13 length 7800 ft width 150 ft
---- / hdg 130

(B) RW 17L length 9802 ft width 150 ft
ILS 110.90 / hdg 175

(C) RW 17R length 9800 ft width 150 ft
ILS 110.70 / hdg 175

(D) RW 18 length 3078 ft width 75 ft
---- / hdg 175

(E) RW 31 length 7800 ft width 150 ft
---- / hdg 310

(F) RW 35L length 9800 ft width 150 ft
ILS 110.70 / hdg 355

(G) RW 35R length 9802 ft width 150 ft
ILS 110.90 / hdg 355

(H) RW 36 length 3078 ft width 75 ft
---- / hdg 355

Location; KOKC
Day. 06 / Time. 01.52 Zulu
* Altimeter: 29.86
* Temperature: 15° c. 59°f.
* Wind from: 020° Speed 08 kn.
Dewpoint: 06° c.
Visibility: 10 Statute Miles.
Clouds: Broken 12000 ft.
Clouds: Broken 25000 ft.

KOKC 060152Z 02008KT 10SM BKN120 BKN250 15/06 A2986 RMK AO2 SLP110 T01500056


Wind From 020°
Speed 08 kn.

 
 
jpsmedia worldairports.se 2019   terms of use